Location: Bourg-d�Oueil
(42.8588°N, 0.4991°E)
Time: 18:13:12
(UTC+00:00)

Cosmos 2333 Rocket - Visible Passes

Search period start: 21 October 2021 00:00
Search period end: 31 October 2021 00:00
Orbit: 839 x 863 km, 70.8° (Epoch: 20 October)

Date Brightness Start Highest point End Pass type
(mag) Time Alt. Az. Time Alt. Az. Time Alt. Az.
21 Oct 4.7 04:04:47 10° N 04:08:51 19° NE 04:12:53 10° E visible
22 Oct 4.7 03:52:34 10° N 03:56:37 19° NE 04:00:39 10° E visible
22 Oct 2.2 05:35:47 10° NNW 05:41:34 79° WSW 05:47:19 10° SSE visible
22 Oct 3.9 18:46:34 10° SSE 18:47:58 16° SSE 18:47:58 16° SSE visible
22 Oct 4.7 20:29:48 10° SW 20:30:06 11° SW 20:30:06 11° SW visible
23 Oct 4.6 03:40:19 10° N 03:44:22 19° NE 03:48:26 10° E visible
23 Oct 2.2 05:23:34 10° NNW 05:29:20 79° WSW 05:35:05 10° SSE visible
23 Oct 3.2 18:34:20 10° SSE 18:37:49 25° ESE 18:37:49 25° ESE visible
23 Oct 4.0 20:17:33 10° SW 20:19:57 24° WSW 20:19:57 24° WSW visible
24 Oct 4.6 03:28:05 10° N 03:32:09 19° NE 03:36:11 10° E visible
24 Oct 2.2 05:11:19 10° NNW 05:17:06 79° WSW 05:22:51 10° SSE visible
24 Oct 3.0 18:22:06 10° SSE 18:26:46 27° ESE 18:27:35 26° E visible
24 Oct 3.3 20:05:19 10° SW 20:09:42 41° W 20:09:42 41° W visible
25 Oct 4.6 03:15:51 10° N 03:19:55 19° NE 03:23:57 10° E visible
25 Oct 2.2 04:59:05 10° NNW 05:04:52 79° WSW 05:10:37 10° SSE visible
25 Oct 3.1 18:09:51 10° SSE 18:14:31 27° ESE 18:17:13 19° ENE visible
25 Oct 3.1 19:53:06 10° SW 19:58:31 46° WNW 19:59:20 43° NW visible
26 Oct 4.6 03:03:37 10° N 03:07:40 19° NE 03:11:43 10° E visible
26 Oct 2.1 04:46:51 10° NNW 04:52:38 79° WSW 04:58:23 10° SSE visible
26 Oct 3.1 17:57:36 10° SSE 18:02:17 27° ESE 18:06:38 12° NE visible
26 Oct 3.1 19:40:51 10° SW 19:46:17 46° WNW 19:48:43 29° N visible
27 Oct 4.5 02:52:41 14° NNE 02:55:26 19° NE 02:59:30 10° E visible
27 Oct 2.1 04:34:47 11° NNW 04:40:24 79° WSW 04:46:09 10° SSE visible
27 Oct 3.1 17:45:23 10° SSE 17:50:03 27° ESE 17:54:46 10° NE visible
27 Oct 3.1 19:28:37 10° SW 19:34:02 46° WNW 19:37:52 19° N visible
28 Oct 4.5 02:42:17 19° NE 02:43:12 19° NE 02:47:16 10° E visible
28 Oct 2.1 04:24:25 23° NNW 04:28:10 79° WSW 04:33:55 10° SSE visible
28 Oct 3.1 17:33:08 10° SSE 17:37:49 27° ESE 17:42:32 10° NE visible
28 Oct 3.2 19:16:23 10° SW 19:21:49 46° WNW 19:26:47 13° NNE visible
29 Oct 4.6 02:32:03 18° ENE 02:32:03 18° ENE 02:35:02 10° E visible
29 Oct 2.1 04:14:11 47° NW 04:15:56 79° WSW 04:21:41 10° SSE visible
29 Oct 4.0 05:58:15 10° W 05:59:11 10° W 06:00:08 10° WSW visible
29 Oct 3.1 17:20:53 10° SSE 17:25:34 27° ESE 17:30:18 10° NE visible
29 Oct 3.2 19:04:09 10° SW 19:09:35 46° WNW 19:15:04 10° NNE visible
30 Oct 4.9 02:21:54 13° E 02:21:54 13° E 02:22:48 10° E visible
30 Oct 2.1 04:04:02 75° SSW 04:04:02 75° SSW 04:09:27 10° SSE visible
30 Oct 4.0 05:46:10 10° W 05:46:57 10° W 05:47:53 10° WSW visible
30 Oct 3.2 18:51:54 10° SW 18:57:20 46° WNW 19:02:50 10° NNE visible
